Meridian, MS

9:49 AM CST on December 14, 2019 (GMT -0600)
Key

Weather History for KMEI - October, 2019

Change the Weather History Date:

Tuesday, October 8, 2019

  Actual Average Record
Temperature  
Mean Temperature 74 °F 67 °F  
Max Temperature 84 °F 80 °F 94 °F (1990)
Min Temperature 62 °F 54 °F 32 °F (1889)
Degree Days  
Heating Degree Days 0 2  
Month to date heating degree days 0 12  
Since 1 July heating degree days 0 19  
Cooling Degree Days 8 4  
Month to date cooling degree days 142 38  
Year to date cooling degree days 2774 1961  
Growing Degree Days 24 (Base 50)    
Moisture  
Dew Point 61 °F    
Average Humidity 74    
Maximum Humidity 90    
Minimum Humidity 48    
Precipitation  
Precipitation 0.00 in 0.12 in 3.12 in (1930)
Month to date precipitation T 0.92  
Year to date precipitation 43.18 43.31  
Sea Level Pressure  
Sea Level Pressure 30.03 in    
Wind  
Wind Speed 8 mph ()    
Max Wind Speed 13 mph    
Max Gust Speed 17 mph    
Visibility 10.0 miles    
Events      
T = Trace of Precipitation, MM = Missing Value Source: Averaged Metar Reports

Daily Weather History Graph

Daily Weather History Graph

Search for Another Location

Airport or City:

Astronomy

Oct. 08, 2019 Rise Set
Actual Time 6:53 AM CDT 6:31 PM CDT
Civil Twilight 6:29 AM CDT 6:55 PM CDT
Nautical Twilight 6:00 AM CDT 7:23 PM CDT
Astronomical Twilight 5:32 AM CDT 7:52 PM CDT
Moon 4:09 PM CDT (10/8) 2:05 AM CDT (10/8)
Length of Visible Light 12h 26m
Length of Day
11h 37m
Waxing Gibbous, 78% of the Moon is Illuminated
Oct 8
Waxing Gibbous
Oct 13
Full
Oct 21
Last Quarter
Oct 27
New
Nov 4
First Quarter

Hourly Weather History & Observations

Time (CDT) Temp. Heat Index Dew Point Humidity Pressure Visibility Wind Dir Wind Speed Gust Speed Precip Events Conditions
12:58 AM 66.9 °F - 62.1 °F 84% 30.04 in 10.0 mi North 10.4 mph - N/A   Overcast
1:58 AM 66.9 °F - 61.0 °F 81% 30.04 in 10.0 mi North 11.5 mph - N/A   Overcast
2:58 AM 66.0 °F - 61.0 °F 84% 30.03 in 10.0 mi North 11.5 mph - N/A   Overcast
3:58 AM 64.9 °F - 61.0 °F 87% 30.03 in 10.0 mi North 9.2 mph - N/A   Overcast
4:58 AM 64.9 °F - 61.0 °F 87% 30.04 in 9.0 mi North 9.2 mph - N/A   Overcast
5:58 AM 64.0 °F - 61.0 °F 90% 30.05 in 10.0 mi North 8.1 mph - N/A   Overcast
6:58 AM 64.9 °F - 61.0 °F 87% 30.05 in 10.0 mi North 8.1 mph - N/A   Overcast
7:58 AM 64.0 °F - 60.1 °F 87% 30.06 in 10.0 mi North 11.5 mph - N/A   Overcast
8:58 AM 64.9 °F - 60.1 °F 84% 30.07 in 10.0 mi NNE 8.1 mph - N/A   Overcast
9:58 AM 66.0 °F - 60.1 °F 81% 30.09 in 10.0 mi NNE 5.8 mph - N/A   Overcast
10:58 AM 69.1 °F - 60.1 °F 73% 30.07 in 10.0 mi Variable 3.5 mph - N/A   Overcast
11:46 AM 73.0 °F - 61.0 °F 66% 30.07 in 10.0 mi NW 4.6 mph - N/A   Scattered Clouds
11:58 AM 75.0 °F - 61.0 °F 62% 30.06 in 10.0 mi North 10.4 mph - N/A   Scattered Clouds
12:58 PM 77.0 °F - 62.1 °F 60% 30.04 in 10.0 mi Calm Calm - N/A   Clear
1:58 PM 81.0 °F 82.2 °F 63.0 °F 54% 30.01 in 10.0 mi NNW 5.8 mph - N/A   Clear
2:58 PM 82.9 °F 83.7 °F 62.1 °F 49% 29.99 in 10.0 mi Variable 5.8 mph - N/A   Clear
3:58 PM 84.0 °F 84.9 °F 63.0 °F 49% 29.98 in 10.0 mi NNW 6.9 mph - N/A   Partly Cloudy
4:58 PM 82.0 °F 83.1 °F 63.0 °F 52% 29.98 in 10.0 mi North 11.5 mph - N/A   Clear
5:58 PM 79.0 °F - 63.0 °F 58% 29.99 in 10.0 mi NNW 8.1 mph - N/A   Clear
6:58 PM 73.9 °F - 62.1 °F 66% 30.00 in 10.0 mi North 8.1 mph - N/A   Clear
7:58 PM 71.1 °F - 62.1 °F 73% 30.02 in 10.0 mi NNE 9.2 mph - N/A   Clear
8:58 PM 68.0 °F - 61.0 °F 78% 30.03 in 10.0 mi North 8.1 mph - N/A   Clear
9:58 PM 66.0 °F - 61.0 °F 84% 30.04 in 10.0 mi North 6.9 mph - N/A   Clear
10:58 PM 64.0 °F - 60.1 °F 87% 30.04 in 10.0 mi North 6.9 mph - N/A   Clear
11:58 PM 63.0 °F - 59.0 °F 87% 30.04 in 10.0 mi North 6.9 mph - N/A   Clear